Regional Weather Roundup
Issued by NWS

Home | Current Version | Previous Version | Graphics & Text | Print | Product List | Glossary On
Versions: 1 2 3 4 5 6 7 8 9 10 11 12 13 14 15 16 17 18 19 20 21 22 23 24 25 26 27 28 29 30 31 32 33 34 35 36 37 38 39 40 41 42 43 44 45 46 47 48 49 50
000
ASUS43 KOAX 270002
RWRNE

WEATHER ROUNDUP FOR NEBRASKA
NATIONAL WEATHER SERVICE OMAHA NE
600 PM CST THU FEB 26 2015

NOTES: SATELLITE DATA IS BEING USED TO AUGMENT CLOUD COVER ABOVE
       12000 FEET.
       "FAIR" INDICATES FEW OR NO CLOUDS BELOW 12,000 FEET WITH NO
       SIGNIFICANT WEATHER AND/OR OBSTRUCTIONS TO VISIBILITY.

  * THESE STATIONS DO NOT REPORT WEATHER SUCH AS RAIN...SNOW OR FOG.

NEZ001>004-019>022-054>056-270100-
NEBRASKA PANHANDLE

CITY           SKY/WX    TMP DP  RH WIND       PRES   REMARKS
SCOTTSBLUFF    CLOUDY    15   6  67 E9        30.28S WCI   3
6HR MIN TEMP:  14; 6HR MAX TEMP:  18; 6HR PCP: TRACE;

ALLIANCE       MOCLDY    11   0  61 NE7       30.30R WCI   0
6HR MIN TEMP:  10; 6HR MAX TEMP:  14;

CHADRON        CLEAR     13  -3  49 NE7       30.37R WCI   3
6HR MIN TEMP:   9; 6HR MAX TEMP:  15; 6HR PCP: TRACE;

SIDNEY         CLOUDY    15   5  64 NE10      30.25S WCI   2
6HR MIN TEMP:  15; 6HR MAX TEMP:  18; 6HR PCP: TRACE;

$$

NEZ057>060-069>072-079>082-270100-
SOUTHWEST NEBRASKA

CITY           SKY/WX    TMP DP  RH WIND       PRES   REMARKS
NORTH PLATTE   CLEAR     17  -7  34 N12       30.37R WCI   4
6HR MIN TEMP:  16; 6HR MAX TEMP:  21;

IMPERIAL         N/A     19   0  43 NE10      30.32S WCI   7
6HR MIN TEMP:  16; 6HR MAX TEMP:  22;

MCCOOK         PTCLDY    23  -3  32 NE10      30.37S WCI  12
6HR MIN TEMP:  21; 6HR MAX TEMP:  26;

$$

NEZ005>010-023>029-035>040-094-270100-
NORTH CENTRAL NEBRASKA

CITY           SKY/WX    TMP DP  RH WIND       PRES   REMARKS
VALENTINE      CLEAR     10  -3  55 NW9       30.43S WCI  -3
6HR MIN TEMP:   7; 6HR MAX TEMP:  14; 6HR PCP: TRACE;

AINSWORTH      PTCLDY     9  -3  57 N13       30.43S WCI  -6
BROKEN BOW     CLEAR     14  -6  40 N10       30.40R WCI   1
6HR MIN TEMP:  12; 6HR MAX TEMP:  18;

ORD            CLEAR     13  -7  40 N16       30.44R WCI  -3
6HR MIN TEMP:  12; 6HR MAX TEMP:  17;

$$

NEZ041-046>049-061>064-073>077-083>087-270100-
SOUTH CENTRAL NEBRASKA

CITY           SKY/WX    TMP DP  RH WIND       PRES   REMARKS
GRAND ISLAND   CLEAR     13  -4  46 N12       30.46S WCI  -1
6HR MIN TEMP:  12; 6HR MAX TEMP:  17;

HASTINGS       CLEAR     15  -6  39 N14       30.43S WCI   0
6HR MIN TEMP:  13; 6HR MAX TEMP:  19;

HEBRON         CLEAR     15  -4  42 N10       30.48R WCI   3
KEARNEY *      CLEAR     16  -8  35 N10       30.43R WCI   3
YORK           CLEAR     12   0  57 N12G18    30.48R WCI  -2
$$

NEZ011>018-030>034-042>045-270100-
NORTHEAST NEBRASKA

CITY           SKY/WX    TMP DP  RH WIND       PRES   REMARKS
NORFOLK        CLOUDY    10   0  63 N9        30.48S WCI  -3
6HR MIN TEMP:  10; 6HR MAX TEMP:  13; 6HR PCP: TRACE;

BLAIR          CLOUDY    10   0  63 NW13      30.49S WCI  -5
COLUMBUS *     PTCLDY    10  -6  48 N12       30.51S WCI  -4
TEKAMAH        MOCLDY    10  -2  58 NW18      30.54R WCI  -8
6HR MIN TEMP:   9; 6HR MAX TEMP:  13;

$$

NEZ050>053-065>068-078-088>093-270100-
SOUTHEAST NEBRASKA

CITY           SKY/WX    TMP DP  RH WIND       PRES   REMARKS
LINCOLN        CLEAR     12  -1  56 N15       30.52S WCI  -4
6HR MIN TEMP:  11; 6HR MAX TEMP:  16;

OMAHA EPPLEY   MOCLDY     9   2  73 N12       30.53S WCI  -6
6HR MIN TEMP:   7; 6HR MAX TEMP:  12; 6HR PCP: TRACE;

FALLS CITY     PTCLDY    12  -2  53 N15       30.51R WCI  -4
6HR MIN TEMP:  12; 6HR MAX TEMP:  18;

$$

NEZ044-045-051>053-067-270100-
OMAHA AREA

CITY           SKY/WX    TMP DP  RH WIND       PRES   REMARKS
OMAHA EPPLEY   MOCLDY     9   2  73 N12       30.53S WCI  -6
6HR MIN TEMP:   7; 6HR MAX TEMP:  12; 6HR PCP: TRACE;

BLAIR          CLOUDY    10   0  63 NW13      30.49S WCI  -5
$$


USA.gov is the U.S. government's official web portal to all federal, state and local government web resources and services.